Find Starlink 35889

NORAD ID: 67189 Int'l Des: 2025-303 Owner: SPXS Country: US Constellation: starlink operational
LEOCIRCULAR

Aktuelle Ansicht

3D-Globus wird geladen...

Über Starlink 35889

Beschreibung wird geladen...

Nächste Überflüge

Passes for default location (London). Set your location on the main map for personalized predictions.

Höhenverlauf

Loading altitude history...

Zweizeiliger Elementsatz

1 67189U 25303AC 26150.17832573 .00019860 00000-0 72885-3 0 9991
2 67189 42.9985 210.8632 0001062 267.5495 92.5235 15.27598790 25195
Epoch: 30. Mai 2026 • Age: 7 hours

Aktueller Status

Höhe 495.5 km
Geschwindigkeit 7.62 km/s
Subsatellitenpunkt -42.86°S, 47.3°E
Startdatum 17. Dez. 2025
Alter 0.4 years
Typ internet

Technische Details

Klassifizierung Payload
Masse 575.00 kg
Trockenmasse 530.00 kg
Gesamtmasse 575.00 kg
Länge 0.30 m
Durchmesser 4.10 m
Spannweite 29.00 m
Form Box + pan
Hersteller SPXS
Bus-Typ Starlink V2MO
Phasenstatus In Orbit
Besitzer/Staat SPXS/US

Most Searched